This demonstration page uses our WeatherBlox Daily Observations layout. Learn more.

Left ArrowRight Arrow

39.51506, -84.39828

Hourly Observations for December 11, 2018

Temp ( °F °C ) Dew Point ( °F °C ) Humidity (%) Winds ( mph kmh ) Pressure ( in mb ) Visibility ( mi km ) Precip ( " mm )
12:15 am 00:15 Cloudy with Mist and Fog 20 -6.7 19 -7.5 94 94 W 7 11 30.33 1027 3 5 N/A
12:35 am 00:35 Cloudy with Mist and Fog 20 -6.6 19 -7.3 95 95 SW 5 7 30.33 1027 3 5 N/A
12:55 am 00:55 Cloudy with Mist and Fog 20 -6.8 19 -7.4 96 96 SW 6 9 30.30 1026 3 4 N/A
1:15 am 01:15 Cloudy with Mist and Fog 20 -6.9 18 -7.6 95 95 W 5 7 30.30 1026 3 4 N/A
1:35 am 01:35 Cloudy with Mist and Fog 20 -6.6 19 -7.3 95 95 SW 5 7 30.30 1026 3 5 N/A
1:55 am 01:55 Cloudy with Mist and Fog 20 -6.4 19 -7.1 95 95 SSW 7 11 30.30 1026 3 5 N/A
2:15 am 02:15 Cloudy with Mist and Fog 21 -6.2 20 -6.9 95 95 SSW 8 13 30.30 1026 3 5 N/A
2:35 am 02:35 Cloudy with Mist and Fog 21 -6.2 20 -6.9 95 95 SSW 7 11 30.30 1026 3 5 N/A
2:55 am 02:55 Cloudy with Mist and Fog 21 -6.3 19 -7 95 95 SSW 7 11 30.30 1026 3 5 N/A
3:15 am 03:15 Cloudy with Mist and Fog 21 -6.3 19 -7.1 94 94 SW 7 11 30.30 1026 4 6 N/A
3:35 am 03:35 Mostly Cloudy with Mist and Fog 20 -6.5 19 -7.3 94 94 SW 6 9 30.30 1026 4 6 N/A
3:55 am 03:55 Mostly Cloudy with Mist and Fog 20 -6.8 18 -7.7 93 93 SW 8 13 30.30 1026 4 6 N/A
4:15 am 04:15 Partly Cloudy with Mist and Fog 19 -7.1 17 -8.1 93 93 SW 6 9 30.30 1026 4 6 N/A
4:35 am 04:35 Mostly Cloudy with Mist and Fog 19 -7.2 17 -8.2 93 93 SW 8 13 30.30 1026 4 6 N/A
4:55 am 04:55 Mostly Cloudy with Mist and Fog 19 -7.4 17 -8.4 93 93 WSW 6 9 30.30 1026 4 6 N/A
5:15 am 05:15 Partly Cloudy with Mist and Fog 18 -7.6 17 -8.6 93 93 SW 3 6 30.30 1026 4 6 N/A
5:35 am 05:35 Cloudy with Mist and Fog 19 -7.5 17 -8.4 93 93 SSW 6 9 30.30 1026 4 6 N/A
5:55 am 05:55 Mostly Cloudy with Mist and Fog 18 -7.7 17 -8.6 93 93 SSW 5 7 30.30 1026 4 6 N/A
6:15 am 06:15 Cloudy with Mist and Fog 19 -7.4 17 -8.4 93 93 S 9 15 30.30 1026 4 6 N/A
6:35 am 06:35 Cloudy with Mist and Fog 18 -7.6 17 -8.5 93 93 S 5 7 30.30 1026 3 5 N/A
6:55 am 06:55 Cloudy with Mist and Fog 18 -7.8 16 -8.8 93 93 S 5 7 30.30 1026 4 6 N/A
7:15 am 07:15 Cloudy with Mist and Fog 18 -8 16 -9.1 92 92 S 5 7 30.30 1026 4 6 N/A
7:35 am 07:35 Partly Cloudy with Mist and Fog 17 -8.4 15 -9.5 92 92 SSW 3 6 30.30 1026 3 4 N/A
7:55 am 07:55 Sunny with Mist and Fog 17 -8.3 15 -9.3 93 93 SSW 5 7 30.30 1026 3 4 N/A
8:15 am 08:15 Sunny with Mist and Fog 17 -8.1 16 -9.1 93 93 SSW 5 7 30.30 1026 3 4 N/A
8:35 am 08:35 Sunny with Mist and Fog 19 -7.1 17 -8.1 93 93 SW 7 11 30.30 1026 3 4 N/A
8:55 am 08:55 Sunny with Mist and Fog 20 -6.5 18 -7.7 91 91 SSW 7 11 30.30 1026 3 4 N/A
9:15 am 09:15 Sunny with Mist and Fog 22 -5.8 19 -7.1 91 91 SSW 6 9 30.30 1026 3 5 N/A
9:35 am 09:35 Sunny with Mist and Fog 23 -5.1 20 -6.6 89 89 SSW 9 15 30.27 1025 3 5 N/A
9:55 am 09:55 Sunny with Mist and Fog 24 -4.3 21 -6 88 88 SSW 6 9 30.27 1025 4 6 N/A
10:15 am 10:15 Sunny with Mist and Fog 26 -3.3 22 -5.5 85 85 SSW 9 15 30.24 1024 4 6 N/A
10:35 am 10:35 Hazy 28 -2.4 22 -5.4 80 80 S 8 13 30.24 1024 4 6 N/A
10:55 am 10:55 Hazy 30 -1.3 22 -5.4 74 74 SSW 14 22 30.24 1024 5 8 N/A
11:15 am 11:15 Hazy 31 -0.4 23 -5.2 70 70 SSW 10 17 30.24 1024 5 8 N/A
11:35 am 11:35 Hazy 33 0.6 23 -4.9 67 67 SSW 13 20 30.21 1023 7 11 N/A
11:55 am 11:55 Sunny 35 1.4 23 -4.9 63 63 SSW 13 20 30.21 1023 7 11 N/A
12:15 pm 12:15 Sunny 36 2.1 23 -5 60 60 SSW 15 24 30.18 1022 10 16 N/A
12:35 pm 12:35 Sunny 37 2.6 24 -4.7 59 59 SSW 15 24 30.18 1022 7 11 N/A
12:55 pm 12:55 Sunny 38 3.1 24 -4.7 57 57 SSW 15 24 30.15 1021 10 16 N/A
1:15 pm 13:15 Sunny 39 3.9 24 -4.4 55 55 SW 12 19 30.15 1021 10 16 N/A
1:35 pm 13:35 Sunny 40 4.2 24 -4.5 54 54 SW 15 24 30.15 1021 10 16 N/A
1:55 pm 13:55 Sunny 42 5.3 24 -4.2 51 51 WSW 15 24 30.09 1019 10 16 N/A
2:15 pm 14:15 Sunny 42 5.4 24 -4.3 50 50 SSW 12 19 30.09 1019 10 16 N/A
2:35 pm 14:35 Sunny 43 6.2 25 -4.1 48 48 NNW 10 17 30.09 1019 10 16 N/A
2:55 pm 14:55 Sunny 44 6.8 23 -4.9 43 43 SW 16 26 30.09 1019 10 16 N/A
3:15 pm 15:15 Sunny 44 6.8 23 -5.1 43 43 SW 17 28 30.09 1019 10 16 N/A
3:35 pm 15:35 Sunny 44 6.7 24 -4.6 45 45 WSW 16 26 30.09 1019 10 16 N/A
3:55 pm 15:55 Sunny 44 6.7 24 -4.3 46 46 WSW 13 20 30.09 1019 10 16 N/A
4:15 pm 16:15 Sunny 43 6.2 24 -4.6 46 46 WSW 16 26 30.09 1019 10 16 N/A
4:35 pm 16:35 Sunny 42 5.8 24 -4.5 48 48 WSW 10 17 30.09 1019 10 16 N/A
4:55 pm 16:55 Sunny 41 5.1 24 -4.4 51 51 WSW 12 19 30.09 1019 10 16 N/A
5:15 pm 17:15 Clear 39 4.1 24 -4.3 55 55 SW 8 13 30.12 1020 10 16 N/A
5:35 pm 17:35 Clear 37 2.8 24 -4.5 59 59 SW 7 11 30.12 1020 10 16 N/A
5:55 pm 17:55 Clear 37 2.9 24 -4.4 59 59 SW 9 15 30.15 1021 10 16 N/A
6:15 pm 18:15 Clear 35 1.8 24 -4.6 63 63 SW 6 9 30.15 1021 10 16 N/A
6:35 pm 18:35 Clear 35 1.6 24 -4.4 65 65 SSW 6 9 30.15 1021 10 16 N/A
6:55 pm 18:55 Clear 32 0.1 24 -4.7 70 70 SSW 7 11 30.12 1020 10 16 N/A
7:15 pm 19:15 Clear 33 0.3 24 -4.7 69 69 SW 7 11 30.12 1020 10 16 N/A
7:35 pm 19:35 Clear 32 0.2 24 -4.6 70 70 SSW 7 11 30.15 1021 10 16 N/A
7:55 pm 19:55 Clear 32 0.2 24 -4.6 70 70 SSW 6 9 30.15 1021 10 16 N/A
8:15 pm 20:15 Clear 33 0.5 24 -4.3 71 71 SSW 6 9 30.15 1021 10 16 N/A
8:35 pm 20:35 Clear 33 0.4 24 -4.2 72 72 SSW 7 11 30.15 1021 10 16 N/A
8:55 pm 20:55 Clear 33 0.4 24 -4.3 71 71 SSW 6 9 30.15 1021 10 16 N/A
9:15 pm 21:15 Clear 32 0.2 24 -4.6 70 70 S 5 7 30.15 1021 10 16 N/A
9:35 pm 21:35 Clear 31 -0.4 24 -4.6 74 74 S 5 7 30.15 1021 10 16 N/A
9:55 pm 21:55 Clear 32 undefined 24 -4.5 72 72 N N/A 30.15 1021 10 16 N/A
10:15 pm 22:15 Clear 33 0.4 24 -4.4 71 71 N N/A 30.15 1021 10 16 N/A
10:35 pm 22:35 Clear 31 -0.6 24 -4.6 75 75 N N/A 30.15 1021 10 16 N/A
10:55 pm 22:55 Clear 28 -2 24 -4.2 85 85 N N/A 30.15 1021 10 16 N/A
11:15 pm 23:15 Clear 27 -2.7 24 -4.5 88 88 N N/A 30.15 1021 10 16 N/A
11:35 pm 23:35 Clear 28 -2.2 24 -4.2 86 86 N N/A 30.15 1021 10 16 N/A
11:55 pm 23:55 Clear 27 -2.6 24 -4.3 88 88 N N/A 30.15 1021 10 16 N/A

Powered by AerisWeather